Location: Unspecified
(58.7730°N, 5.8460°E)
Time: 12:13:00
(UTC+01:00)

Cosmos 2058 - Visible Passes

Search period start: 04 March 2015 00:00
Search period end: 14 March 2015 00:00
Orbit: 569 x 589 km, 82.5° (Epoch: 03 March)

Date Brightness Start Highest point End Pass type
(mag) Time Alt. Az. Time Alt. Az. Time Alt. Az.
04 Mar 5.1 21:34:49 10° N 21:36:27 18° NNE 21:36:27 18° NNE visible
04 Mar 5.5 23:11:30 10° NNW 23:12:46 19° NNW 23:12:46 19° NNW visible
05 Mar 4.9 21:39:28 10° N 21:41:22 21° NNE 21:41:22 21° NNE visible
05 Mar 5.5 23:16:21 10° NNW 23:17:42 19° NNW 23:17:42 19° NNW visible
06 Mar 4.7 21:44:10 10° N 21:46:17 24° NNE 21:46:17 24° NNE visible
06 Mar 5.5 23:21:13 10° NNW 23:22:37 19° NNW 23:22:37 19° NNW visible
07 Mar 5.3 20:14:26 10° NE 20:14:35 10° NE 20:14:52 10° NE visible
07 Mar 4.5 21:48:52 10° N 21:51:13 28° NNE 21:51:13 28° NNE visible
07 Mar 5.5 23:26:06 10° NNW 23:27:33 19° NW 23:27:33 19° NW visible
08 Mar 5.1 20:18:00 10° NNE 20:19:35 12° NE 20:19:50 12° NE visible
08 Mar 4.3 21:53:36 10° N 21:56:10 33° NNE 21:56:10 33° NNE visible
08 Mar 5.5 23:31:02 10° NNW 23:32:29 18° NW 23:32:29 18° NW visible
09 Mar 4.9 20:22:19 10° NNE 20:24:34 14° NE 20:24:47 14° NE visible
09 Mar 4.1 21:58:20 10° N 22:01:06 38° N 22:01:06 38° N visible
09 Mar 5.6 23:36:01 10° NW 23:37:26 16° NW 23:37:26 16° NW visible
10 Mar 4.7 20:26:47 10° NNE 20:29:31 17° NE 20:29:44 17° ENE visible
10 Mar 3.9 22:03:05 10° NNW 22:06:04 44° N 22:06:04 44° N visible
10 Mar 5.7 23:41:05 10° NW 23:42:24 15° WNW 23:42:24 15° WNW visible
11 Mar 4.5 20:31:20 10° N 20:34:28 20° ENE 20:34:42 20° ENE visible
11 Mar 3.7 22:07:51 10° NNW 22:11:02 49° NNW 22:11:02 49° NNW visible
11 Mar 5.8 23:46:18 10° NW 23:47:21 13° WNW 23:47:21 13° WNW visible
12 Mar 4.2 20:35:55 10° N 20:39:22 24° ENE 20:39:40 24° ENE visible
12 Mar 3.7 22:12:38 10° NNW 22:16:00 50° NW 22:16:00 50° NW visible
12 Mar 5.9 23:51:54 10° WNW 23:52:20 11° WNW 23:52:20 11° WNW visible
13 Mar 3.9 20:40:33 10° N 20:44:14 29° ENE 20:44:39 28° ENE visible
13 Mar 3.9 22:17:27 10° NNW 22:21:00 45° WNW 22:21:00 45° WNW visible
